Regional Weather Roundup
Issued by NWS

Home | Current Version | Previous Version | Text Only | Print | Product List | Glossary On
Versions: 1 2 3 4 5 6 7 8 9 10 11 12 13 14 15 16 17 18 19 20 21 22 23 24 25 26 27 28 29 30 31 32 33 34 35 36 37 38 39 40 41 42 43 44 45 46 47 48 49 50
000
ASUS43 KOAX 241602
RWRNE

WEATHER ROUNDUP FOR NEBRASKA
NATIONAL WEATHER SERVICE OMAHA NE
1100 AM CDT SUN SEP 24 2017

NOTES: SATELLITE DATA IS BEING USED TO AUGMENT CLOUD COVER ABOVE
       12000 FEET.
       "FAIR" INDICATES FEW OR NO CLOUDS BELOW 12,000 FEET WITH NO
       SIGNIFICANT WEATHER AND/OR OBSTRUCTIONS TO VISIBILITY.


NEZ001>004-019>022-054>056-241700-
NEBRASKA PANHANDLE

CITY           SKY/WX    TMP DP  RH WIND       PRES   REMARKS
SCOTTSBLUFF    LGT RAIN  48  43  82 N5        30.04R
ALLIANCE       CLOUDY    49  43  80 N13       30.01S
CHADRON        CLOUDY    49  43  80 N9        30.04R
GORDON         CLOUDY    46  44  93 N13       30.01R
KIMBALL        CLOUDY    46  44  94 NE10      30.02S
SIDNEY         LGT RAIN  47  44  90 N10       30.02S
$$

NEZ057>060-069>072-079>082-241700-
SOUTHWEST NEBRASKA

CITY           SKY/WX    TMP DP  RH WIND       PRES   REMARKS
NORTH PLATTE   CLOUDY    53  50  89 N12       29.98R
IMPERIAL       CLOUDY    52  48  86 N12       29.98S
LEXINGTON      LGT RAIN  56  54  94 N6        29.93F
MCCOOK         CLOUDY    54  53  97 N16       29.95F
OGALLALA       CLOUDY    53  47  82 N12       30.00R
$$

NEZ005>010-023>029-035>040-094-241700-
NORTH CENTRAL NEBRASKA

CITY           SKY/WX    TMP DP  RH WIND       PRES   REMARKS
VALENTINE      CLOUDY    51  48  89 NW13G18   29.99R
AINSWORTH      DRIZZLE   51  51 100 NW14      29.99R
BROKEN BOW     LGT RAIN  53  53 100 N12       29.95S
O`NEILL        LGT RAIN  53  53 100 NW6       29.93R
ORD            LGT RAIN  54  51  90 NW13      29.94R
THEDFORD       CLOUDY    51  49  93 NW9       29.99S
$$

NEZ041-046>049-061>064-073>077-083>087-241700-
SOUTH CENTRAL NEBRASKA

CITY           SKY/WX    TMP DP  RH WIND       PRES   REMARKS
GRAND ISLAND   CLOUDY    75  64  68 SW16      29.92R
AURORA         MOSUNNY   77  65  65 SW12      29.91R
HASTINGS       CLOUDY    74  60  61 W14       29.93R
HEBRON         PTSUNNY   82  64  55 S15G21    29.92S
HOLDREGE       DRIZZLE   65  63  93 S7        29.94R
KEARNEY        LGT RAIN  66  64  93 S8        29.93S
YORK           PTSUNNY   81  64  57 S17G23    29.91R
$$

NEZ011>018-030>034-042>045-241700-
NORTHEAST NEBRASKA

CITY           SKY/WX    TMP DP  RH WIND       PRES   REMARKS
NORFOLK        PTSUNNY   79  65  62 S16G26    29.87F
ALBION         CLOUDY    74  66  75 SW13G18   29.90R
BLAIR          MOSUNNY   82  66  58 S16       29.93R
COLUMBUS       PTSUNNY   81  65  58 S15G23    29.90R
FREMONT        PTSUNNY   81  64  55 S12G21    29.92R
TEKAMAH        SUNNY     83  65  54 S10G17    29.90F
WAYNE          PTSUNNY   76  69  76 S16G22    29.89R
$$

NEZ050>053-065>068-078-088>093-241700-
SOUTHEAST NEBRASKA

CITY           SKY/WX    TMP DP  RH WIND       PRES   REMARKS
LINCOLN        MOSUNNY   84  65  52 S18G25    29.91S
OMAHA EPPLEY   PTSUNNY   81  66  60 S14       29.92S
BEATRICE       MOSUNNY   83  65  53 S21       29.93S
FALLS CITY     MOSUNNY   84  67  56 S16       29.94F
NEBRASKA CITY  PTSUNNY   81  69  67 S10G17    29.95S
PLATTSMOUTH    SUNNY     81  68  64 S12G17    29.94S
$$

NEZ044-045-051>053-067-241700-
OMAHA AREA

CITY           SKY/WX    TMP DP  RH WIND       PRES   REMARKS
OMAHA EPPLEY   PTSUNNY   81  66  60 S14       29.92S
BLAIR          MOSUNNY   82  66  58 S16       29.93R
FREMONT        PTSUNNY   81  64  55 S12G21    29.92R
OFFUTT AFB     MOSUNNY   80  66  62 S9        29.92S
PLATTSMOUTH    SUNNY     81  68  64 S12G17    29.94S
WAHOO          FAIR      84  63  49 S17G24    29.91S
$$



USA.gov is the U.S. government's official web portal to all federal, state and local government web resources and services.